This is the latest recevied weather packets stored in our database for station/object KK7RJD. If no packets are shown the sender has not sent any weather packets the latest 10 day(s).
| Time | Temp. | Humidity | Pressure | Rain* | Wind** | Luminosity | Snow |
|---|---|---|---|---|---|---|---|
| 1777654067 | 13.89° C | 33% | 1021.2 hPa | 0 mm | - | 753 W/m² | - |
| 1777653764 | 13.33° C | 32% | 1021.1 hPa | 0 mm | - | 741 W/m² | - |
| 1777653459 | 12.78° C | 34% | 1021.1 hPa | 0 mm | - | 728 W/m² | - |
| 1777653157 | 12.78° C | 33% | 1021.2 hPa | 0 mm | - | 715 W/m² | - |
| 1777652853 | 12.78° C | 34% | 1021.2 hPa | 0 mm | - | 700 W/m² | - |
| 1777652549 | 12.78° C | 33% | 1021.1 hPa | 0 mm | - | 686 W/m² | - |
| 1777652247 | 12.78° C | 34% | 1021.1 hPa | 0 mm | - | 671 W/m² | - |
| 1777651944 | 12.22° C | 36% | 1021.1 hPa | 0 mm | - | 651 W/m² | - |
| 1777651640 | 11.67° C | 35% | 1021.1 hPa | 0 mm | - | 634 W/m² | - |
| 1777651337 | 11.67° C | 34% | 1021.2 hPa | 0 mm | - | 615 W/m² | - |
| 1777651034 | 11.11° C | 35% | 1021.4 hPa | 0 mm | - | 595 W/m² | - |
| 1777650731 | 11.11° C | 35% | 1021.4 hPa | 0 mm | - | 574 W/m² | - |
| 1777650428 | 10.56° C | 37% | 1021.4 hPa | 0 mm | - | 563 W/m² | - |
| 1777650125 | 10.56° C | 36% | 1021.2 hPa | 0 mm | - | 511 W/m² | - |
| 1777649823 | 10.56° C | 35% | 1021.4 hPa | 0 mm | - | 527 W/m² | - |
| 1777649520 | 10° C | 36% | 1021.4 hPa | 0 mm | - | 517 W/m² | - |
| 1777649216 | 10.56° C | 35% | 1021.5 hPa | 0 mm | - | 494 W/m² | - |
| 1777648913 | 10° C | 37% | 1021.4 hPa | 0 mm | - | 478 W/m² | - |
| 1777648610 | 10° C | 38% | 1021.5 hPa | 0 mm | - | 468 W/m² | - |
| 1777648307 | 10° C | 38% | 1021.2 hPa | 0 mm | - | 448 W/m² | - |
| 1777648003 | 9.44° C | 39% | 1021.2 hPa | 0 mm | - | 430 W/m² | - |
| 1777647699 | 10° C | 39% | 1021.2 hPa | 0 mm | - | 107 W/m² | - |
| 1777647395 | 9.44° C | 39% | 1021.4 hPa | 0 mm | - | 446 W/m² | - |
| 1777647094 | 9.44° C | 41% | 1021.4 hPa | 0 mm | - | 385 W/m² | - |
| 1777646790 | 9.44° C | 41% | 1021.2 hPa | 0 mm | - | 367 W/m² | - |
* Rain latest hour (hover to see other rain measurements)
** Current wind speed in m/s (hover to see current wind gust speed)